Miscellaneous Local Product
Issued by NWS North Platte, NE

Home | Current Version | Previous Version | Text Only | Print | Product List | Glossary On
Versions: 1 2 3 4 5 6 7 8 9 10 11 12 13 14 15 16 17 18 19 20 21 22 23 24 25 26 27 28 29 30 31 32 33 34 35 36 37 38 39 40 41 42 43 44 45 46 47 48 49 50
000
AXUS43 KLBF 220010
MISLBF


WESTERN AND NORTH CENTRAL NEBRASKA HOURLY WEATHER ROUNDUP
NATIONAL WEATHER SERVICE NORTH PLATTE NE
600 PM CST SUN DEC 21 2014

***STATIONS NOT REPORTING VARIABLES SUCH AS SKY/WEATHER OR
PRESSURE ARE PROVIDED BY THE NEBRASKA DEPARTMENT OF
ROADS...RAWS...AND APRS NETWORKS...AND ARE NOT UNDER
NATIONAL WEATHER SERVICE QUALITY CONTROL***

...OBSERVATIONS IN AND NEAR THE EASTERN PANHANDLE OF NEBRASKA...

CITY           SKY/WX    TMP DP  RH WIND       PRES   REMARKS
PINE RIDGE     CLOUDY    42  29  59 NW10      29.44R
CHADRON        CLOUDY    39  31  72 W9        29.46R WCI  33
ALLIANCE       CLOUDY    39  32  76 NW8       29.47R WCI  33
SIDNEY         CLOUDY    42  31  64 W10       29.50S
WHITECLAY        N/A     44  27  51 NW14        N/A
LISCO            N/A     41  29  63 W7          N/A
BIG SPRINGS      N/A     37  32  82 W12         N/A  WCI  29
$$

...OBSERVATIONS IN NORTH CENTRAL NEBRASKA...

CITY           SKY/WX    TMP DP  RH WIND       PRES   REMARKS
VALENTINE      CLOUDY    40  31  70 SW12      29.40F WCI  33
THEDFORD       CLOUDY    40  32  73 S15       29.45F WCI  32
AINSWORTH      CLOUDY    39  32  76 S18       29.42S WCI  29
O`NEILL        CLOUDY    37  36  98 S13G21    29.51F FOG     WCI  28
BROKEN BOW     CLOUDY    37  35  92 S8        29.51S FOG     WCI  31
BROWNLEE         N/A     42  30  61 S15         N/A
SPRINGVIEW       N/A     39  33  78 CALM        N/A
BREWSTER         N/A     38  34  88 S10         N/A  WCI  30
ROSE             N/A     37  37  99 E13         N/A  WCI  28
SARGENT          N/A     37  35  94 SE5         N/A  WCI  33
COMSTOCK         N/A     39  39  99 S13         N/A  WCI  32
CHAMBERS         N/A     36  35  98 S7G20       N/A  WCI  30
EWING            N/A     38  37  97 CALM        N/A
$$

...OBSERVATIONS IN SOUTHWEST NEBRASKA AND FAR NORTHEAST COLORADO...

CITY           SKY/WX    TMP DP  RH WIND       PRES   REMARKS
WRAY           CLOUDY    40  33  75 W13       29.52S WCI  32
HOLYOKE        FAIR      37  32  81 W8        29.51S WCI  31
IMPERIAL       CLOUDY    41  30  65 W3        29.51R
OGALLALA       CLOUDY    34  31  87 CALM      29.48F
NORTH PLATTE   CLOUDY    37  32  82 SE5       29.51R WCI  33
MCCOOK         CLOUDY    37  33  85 S8        29.54S WCI  31
LEXINGTON      CLOUDY    39  36  90 S8        29.54S WCI  33
PAXTON           N/A     36  32  86 CALM        N/A
BRADY            N/A     35  31  85 CALM        N/A
GOTHENBURG       N/A     36  32  87 E5          N/A  WCI  32
CALLAWAY         N/A     34  33  95 S21         N/A  WCI  22
$$

...NORTH PLATTE AREA...

CITY           SKY/WX    TMP DP  RH WIND       PRES   REMARKS
AIRPORT        CLOUDY    37  32  82 SE5       29.51R WCI  33
DOWNTOWN         N/A     36  31  83 CALM        N/A
$$

...SOME WEATHER OBSERVATIONS FROM AROUND THE REGION...

CITY           SKY/WX    TMP DP  RH WIND       PRES   REMARKS
DENVER         CLOUDY    46  25  43 W10       29.55R
LARAMIE        CLOUDY    36  28  73 W23G30    29.56S WCI  24
CHEYENNE       CLOUDY    39  31  72 NW14G22   29.55R WCI  31
SCOTTSBLUFF    CLOUDY    40  32  73 NW10      29.49R WCI  33
RAPID CITY     CLOUDY    39  27  62 N8        29.41R WCI  33
PIERRE         MOCLDY    31  28  89 NE8       29.40S WCI  23
WINNER         FAIR      42  31  64 S16       29.40S
SIOUX FALLS    CLOUDY    38  36  92 S21G32    29.58S WCI  28
OMAHA          CLOUDY    42  39  89 S17       29.72F
GRAND ISLAND   CLOUDY    40  38  93 S10       29.61F WCI  33
KANSAS CITY    CLOUDY    44  41  89 S14       29.81F
WICHITA        DRIZZLE   45  42  89 S15G24    29.70F FOG
HAYS           CLOUDY    43  34  70 S13       29.61F
LIBERAL        CLOUDY    45  34  65 SE9       29.58F
GOODLAND       CLOUDY    38  33  82 S5        29.55R WCI  34
$$



USA.gov is the U.S. government's official web portal to all federal, state and local government web resources and services.